Date String (YYYY-MM-DD hh:mm:ss) UTC,Instrument flags,Ambient pressure (hPa),Sample flow (lpm),Bypass flow (lpm),Sample temperature (°C),Ambient temperature (°C),ASC tube jacket temperature (°C),LED temperature (°C),Box temperature (°C),Sample RH (%),Span deviation,Mass concentration (μg/m³),Mass concentration (μg/m³),Mass concentration (μg/m³)
DateTimeUTC,F1_M11,P_M11,Q1_M11,Q2_M11,T1_M11,T2_M11,T3_M11,T4_M11,T5_M11,U1_M11,ZSPAN_M11,X0_M11,X2_M11,X1_M11
2022-07-12 20:00:00,,0829.0,5.00,0.00,29.3,28.1,00.0,38.0,31.3,30.4,0000.0,0030.32,0009.56,0007.94
2022-07-12 20:01:00,,0829.1,5.01,0.00,29.3,27.6,00.0,37.9,31.2,30.1,0000.0,0029.20,0009.67,0007.97
2022-07-12 20:02:00,,0829.1,5.00,0.00,29.2,27.1,00.0,37.8,31.1,30.0,0000.0,0028.04,0009.73,0007.99
2022-07-12 20:03:00,,0829.0,5.00,0.00,29.2,26.9,00.0,37.8,31.0,30.3,0000.0,0027.37,0009.77,0008.01
2022-07-12 20:04:00,,0829.1,5.00,0.00,29.1,27.0,00.0,37.9,30.9,30.1,0000.0,0026.97,0009.81,0008.05
2022-07-12 20:05:00,,0829.0,5.00,0.00,29.1,27.1,00.0,37.8,30.9,30.1,0000.0,0026.75,0009.81,0008.08
2022-07-12 20:06:00,,0829.1,5.01,0.00,29.1,27.3,00.0,37.8,30.9,30.1,0000.0,0026.67,0009.81,0008.12
2022-07-12 20:07:00,,0829.0,5.00,0.00,29.1,27.5,00.0,37.8,31.0,29.9,0000.0,0025.52,0009.77,0008.13
2022-07-12 20:08:00,,0829.1,5.00,0.00,29.2,27.7,00.0,37.9,31.1,29.5,0000.0,0024.09,0009.75,0008.12
2022-07-12 20:09:00,,0829.0,5.00,0.00,29.2,27.9,00.0,37.9,31.2,29.3,0000.0,0024.21,0009.74,0008.14
2022-07-12 20:10:00,,0829.0,5.00,0.00,29.2,28.1,00.0,37.9,31.2,29.4,0000.0,0022.28,0009.70,0008.12
2022-07-12 20:11:00,,0829.0,5.01,0.00,29.3,28.2,00.0,37.9,31.3,29.3,0000.0,0021.78,0009.66,0008.10
2022-07-12 20:12:00,,0829.0,5.00,0.00,29.3,27.9,00.0,37.9,31.3,29.2,0000.0,0021.84,0009.64,0008.09
2022-07-12 20:13:00,,0829.0,4.99,0.00,29.3,27.3,00.0,37.9,31.1,29.2,0000.0,0021.71,0009.61,0008.11
2022-07-12 20:14:00,,0829.1,5.01,0.00,29.2,27.0,00.0,37.9,31.1,29.5,0000.0,0022.62,0009.60,0008.11
2022-07-12 20:15:00,,0829.0,5.00,0.00,29.2,27.0,00.0,37.9,30.9,29.7,0000.0,0023.07,0009.61,0008.12
2022-07-12 20:16:00,,0829.1,5.00,0.00,29.1,27.2,00.0,37.9,30.9,29.6,0000.0,0023.31,0009.66,0008.12
2022-07-12 20:17:00,,0829.1,5.01,0.00,29.1,27.4,00.0,37.9,30.9,29.3,0000.0,0023.48,0009.66,0008.10
2022-07-12 20:18:00,,0829.1,4.99,0.00,29.2,27.6,00.0,37.9,31.0,29.3,0000.0,0023.35,0009.70,0008.11
2022-07-12 20:19:00,,0829.1,5.01,0.00,29.2,27.7,00.0,37.9,31.1,29.3,0000.0,0023.97,0009.67,0008.11
2022-07-12 20:20:00,,0829.0,5.00,0.00,29.2,27.9,00.0,37.9,31.2,29.2,0000.0,0024.11,0009.66,0008.12
2022-07-12 20:21:00,,0829.1,5.00,0.00,29.3,28.1,00.0,37.9,31.2,29.1,0000.0,0024.85,0009.63,0008.14
2022-07-12 20:22:00,,0829.0,5.00,0.00,29.3,28.2,00.0,37.9,31.3,29.1,0000.0,0025.82,0009.68,0008.16
2022-07-12 20:23:00,,0829.0,4.99,0.00,29.3,27.6,00.0,37.9,31.2,28.9,0000.0,0027.53,0009.70,0008.19
2022-07-12 20:24:00,,0829.0,5.00,0.00,29.2,27.1,00.0,37.9,31.1,29.2,0000.0,0028.77,0009.74,0008.20
2022-07-12 20:25:00,,0828.9,5.00,0.00,29.2,27.0,00.0,37.9,31.0,29.2,0000.0,0029.14,0009.78,0008.21
2022-07-12 20:26:00,,0828.8,4.99,0.00,29.2,27.1,00.0,37.9,30.9,29.1,0000.0,0029.14,0009.75,0008.21
2022-07-12 20:27:00,,0828.8,5.01,0.00,29.1,27.2,00.0,37.9,30.9,29.2,0000.0,0028.89,0009.75,0008.20
2022-07-12 20:28:00,,0829.0,5.01,0.00,29.1,27.4,00.0,37.9,31.0,28.8,0000.0,0029.02,0009.78,0008.19
2022-07-12 20:29:00,,0829.2,5.00,0.00,29.2,27.6,00.0,37.9,31.1,28.5,0000.0,0030.10,0009.72,0008.16
2022-07-12 20:30:00,,0828.7,5.00,0.00,29.2,27.8,00.0,37.9,31.1,28.3,0000.0,0030.36,0009.74,0008.14
2022-07-12 20:31:00,,0828.9,5.00,0.00,29.2,28.0,00.0,37.9,31.2,28.0,0000.0,0029.57,0009.74,0008.10
2022-07-12 20:32:00,,0828.8,5.00,0.00,29.3,28.1,00.0,38.0,31.3,28.0,0000.0,0028.88,0009.78,0008.07
2022-07-12 20:33:00,,0828.8,5.00,0.00,29.3,28.3,00.0,38.0,31.3,27.6,0000.0,0028.33,0009.72,0008.06
2022-07-12 20:34:00,,0828.6,4.99,0.00,29.3,27.8,00.0,37.9,31.3,27.3,0000.0,0026.64,0009.70,0008.05
2022-07-12 20:35:00,,0828.4,5.00,0.00,29.3,27.2,00.0,37.9,31.2,27.0,0000.0,0026.71,0009.66,0008.03
2022-07-12 20:36:00,,0828.3,5.00,0.00,29.2,27.0,00.0,37.9,31.1,27.3,0000.0,0025.49,0009.61,0008.03
2022-07-12 20:37:00,,0828.3,5.01,0.00,29.2,27.0,00.0,37.9,30.9,27.9,0000.0,0025.74,0009.65,0008.04
2022-07-12 20:38:00,,0828.3,5.00,0.00,29.2,27.2,00.0,37.9,30.9,28.1,0000.0,0025.98,0009.63,0008.04
2022-07-12 20:39:00,,0828.3,5.01,0.00,29.2,27.4,00.0,37.9,31.0,28.1,0000.0,0026.18,0009.66,0008.06
2022-07-12 20:40:00,,0828.3,4.99,0.00,29.2,27.6,00.0,37.9,31.1,28.1,0000.0,0025.62,0009.71,0008.08
2022-07-12 20:41:00,,0828.3,5.01,0.00,29.2,27.8,00.0,37.9,31.1,28.2,0000.0,0025.89,0009.67,0008.08
2022-07-12 20:42:00,,0828.3,5.00,0.00,29.3,28.0,00.0,37.9,31.2,28.6,0000.0,0027.23,0009.65,0008.09
2022-07-12 20:43:00,,0828.3,4.99,0.00,29.3,28.1,00.0,38.0,31.3,28.3,0000.0,0028.36,0009.65,0008.09
2022-07-12 20:44:00,,0828.2,5.00,0.00,29.3,28.2,00.0,38.0,31.3,28.4,0000.0,0027.44,0009.69,0008.09
2022-07-12 20:45:00,,0828.2,4.99,0.00,29.3,27.6,00.0,37.9,31.2,28.5,0000.0,0027.42,0009.67,0008.09
2022-07-12 20:46:00,,0828.2,5.00,0.00,29.3,27.1,00.0,37.9,31.1,28.9,0000.0,0028.33,0009.66,0008.09
2022-07-12 20:47:00,,0828.1,5.01,0.00,29.2,27.0,00.0,37.9,31.0,29.5,0000.0,0028.39,0009.67,0008.07
2022-07-12 20:48:00,,0828.1,4.99,0.00,29.2,27.1,00.0,37.9,30.9,29.2,0000.0,0028.37,0009.66,0008.06
2022-07-12 20:49:00,,0828.1,5.00,0.00,29.2,27.3,00.0,37.9,31.0,29.4,0000.0,0027.57,0009.65,0008.06
2022-07-12 20:50:00,,0828.0,5.01,0.00,29.2,27.4,00.0,37.9,31.0,29.6,0000.0,0027.93,0009.62,0008.06
2022-07-12 20:51:00,,0828.0,5.00,0.00,29.2,27.7,00.0,37.9,31.1,29.6,0000.0,0028.55,0009.59,0008.06
2022-07-12 20:52:00,,0828.0,5.00,0.00,29.2,27.8,00.0,37.9,31.1,29.4,0000.0,0028.84,0009.64,0008.08
2022-07-12 20:53:00,,0827.9,5.00,0.00,29.3,28.0,00.0,37.9,31.2,29.4,0000.0,0027.57,0009.77,0008.10
2022-07-12 20:54:00,,0827.9,5.01,0.00,29.3,28.2,00.0,38.0,31.3,29.5,0000.0,0027.20,0009.78,0008.10
2022-07-12 20:55:00,,0827.9,5.01,0.00,29.3,28.0,00.0,37.9,31.3,29.5,0000.0,0028.76,0009.81,0008.12
2022-07-12 20:56:00,,0827.9,4.99,0.00,29.3,27.3,00.0,37.9,31.2,29.5,0000.0,0028.51,0009.85,0008.14
2022-07-12 20:57:00,,0827.9,5.01,0.00,29.3,27.1,00.0,37.9,31.1,29.7,0000.0,0027.29,0009.88,0008.17
2022-07-12 20:58:00,,0827.9,4.99,0.00,29.2,27.1,00.0,37.9,31.0,30.0,0000.0,0027.50,0009.94,0008.22
2022-07-12 20:59:00,,0827.9,5.00,0.00,29.2,27.2,00.0,37.9,31.0,30.2,0000.0,0027.73,0009.99,0008.27
